Powrót do katalogu

STARLINK-11529

AktywnyŁącznośćVLEO
NORAD 62599·PAYLOAD·🇺🇸 United States

Wystrzelony Jan 13, 2025 z Cape Canaveral Space Force Station

Loading…

Następne Przeloty (najbliższe 24 godziny)

TLE

ŚwieżeSource: CelesTrak SupGP

Epoka: Sep 15, 2026, 03:23 UTC

1 62599C 25008N   26258.14145833 -.00091413  00000+0 -70961-3 0  2581
2 62599  43.0009  64.1878 0001722 268.5428 331.3580 15.70896551    11

Śledź STARLINK-11529 w czasie rzeczywistym z AllMySat

Download on the App Store